ICT,Max TemperatureF,Mean TemperatureF,Min TemperatureF,Max Dew PointF,MeanDew PointF,Min DewpointF,Max Humidity, Mean Humidity, Min Humidity, Max Sea Level PressureIn, Mean Sea Level PressureIn, Min Sea Level PressureIn, Max VisibilityMiles, Mean VisibilityMiles, Min VisibilityMiles, Max Wind SpeedMPH, Mean Wind SpeedMPH, Max Gust SpeedMPH,PrecipitationIn, CloudCover, Events, WindDirDegrees
2012-10-1,93,85,77,77,76,73,94,78,51,29.92,29.86,29.77,6,5,2,10,2,,0.83,6,Rain-Thunderstorm,241
2012-10-2,91,86,80,79,77,75,94,77,60,29.92,29.85,29.77,6,4,2,9,1,,0.08,6,Rain-Thunderstorm,188
2012-10-3,91,86,80,79,75,72,89,74,47,29.86,29.79,29.68,6,6,5,12,3,,0.08,6,,251
2012-10-4,93,86,80,77,73,68,84,68,39,29.80,29.75,29.68,6,6,6,14,6,,0.00,5,,251
2012-10-5,92,86,80,77,74,70,84,69,40,29.83,29.77,29.68,6,6,6,10,5,,0.04,5,Rain,257
2012-10-6,87,83,79,76,74,72,84,74,58,29.89,29.81,29.74,6,6,6,9,4,,0.00,6,Rain,301
2012-10-7,90,84,78,77,74,71,94,71,51,29.86,29.80,29.74,6,6,4,12,5,,0.16,6,Rain,356
2012-10-8,86,81,76,79,75,73,95,86,70,29.80,29.75,29.68,6,5,2,16,6,,0.59,7,Rain-Thunderstorm,40
2012-10-9,87,82,76,77,74,72,94,82,51,29.86,29.79,29.74,6,6,2,12,3,,0.67,6,Rain,123
2012-10-10,90,84,77,77,74,68,94,75,46,29.92,29.84,29.77,6,6,5,12,2,,0.00,6,Thunderstorm,328
2012-10-11,92,86,79,79,76,73,89,76,55,29.89,29.83,29.74,6,5,4,7,2,,0.00,6,,300
2012-10-12,96,87,78,79,76,75,94,71,47,29.89,29.82,29.74,6,5,4,9,3,,0.00,6,,104
2012-10-13,96,89,82,79,76,73,89,69,44,29.89,29.80,29.74,6,4,2,12,1,,0.00,5,,212
2012-10-14,95,87,79,77,75,69,84,67,46,29.89,29.82,29.74,6,5,4,15,1,,0.04,6,Rain-Thunderstorm,226
2012-10-15,90,84,79,77,75,73,89,78,58,29.95,29.87,29.83,6,5,4,10,1,,0.00,6,Thunderstorm,206
2012-10-16,90,84,77,77,75,72,94,78,53,29.95,29.88,29.80,6,5,2,12,1,,0.24,6,Rain-Thunderstorm,210
2012-10-17,92,86,79,77,73,68,89,70,37,29.92,29.85,29.77,6,5,3,6,0,,0.00,6,,94
2012-10-18,94,86,79,75,71,66,89,62,36,29.92,29.86,29.80,6,6,4,13,3,,0.00,4,,93
2012-10-19,94,86,79,75,72,68,84,63,39,29.92,29.86,29.80,6,6,6,6,1,,0.00,5,,65
2012-10-20,99,90,80,75,73,70,84,62,34,29.92,29.85,29.77,6,6,6,6,2,,0.00,6,,100
2012-10-21,96,89,82,77,75,70,84,65,39,29.92,29.84,29.77,6,6,6,14,3,,0.00,4,,75
2012-10-22,95,88,81,79,75,72,89,68,47,29.92,29.83,29.74,6,6,4,9,2,,0.00,5,,49
2012-10-23,91,85,79,75,73,72,79,66,46,29.89,29.81,29.74,6,6,6,12,2,,0.00,6,,356
2012-10-24,93,85,77,79,76,73,94,76,55,29.86,29.80,29.74,6,6,1,14,3,,2.17,6,Rain-Thunderstorm,90
2012-10-25,91,84,77,76,73,55,94,71,21,29.86,29.79,29.71,6,6,4,8,1,,0.00,5,,3
2012-10-26,96,88,79,77,74,66,84,64,37,29.83,29.76,29.68,6,6,6,9,4,,0.00,4,,356
2012-10-27,97,89,81,76,72,36,79,57,16,29.83,29.76,29.68,6,6,6,10,3,,0.00,3,,47
2012-10-28,97,90,82,75,73,68,79,61,37,29.83,29.77,29.71,6,6,6,12,1,,0.00,4,,124
2012-10-29,93,88,82,77,75,70,79,67,46,29.86,29.78,29.71,6,6,5,8,1,,0.00,5,,359
2012-10-30,97,86,76,79,74,68,83,65,42,29.83,29.77,29.68,6,6,4,20,3,,0.00,5,Rain-Thunderstorm,105
2012-10-31,87,82,78,77,75,72,94,79,62,29.92,29.83,29.77,6,6,4,7,1,,0.24,6,Rain,298